Flag for Germany Weather past 2 weeks in Nürtingen, Baden-Württemberg, Germany

Now
57 °F

Light rain. Broken clouds.


Feels Like: 57 °F
Forecast: 50 / 69 °F
Wind: 3 mph from East

Location: Stuttgart-Echterdingen

Current Time: Apr 25, 2015 at 1:16:42 PM

Latest Report: Apr 25, 2015 at 12:20 PM


Visibility: N/A

Pressure: 29.86 "Hg

Humidity: 72%

Dew point: 48 °F

Location of NürtingenLocation

Historic Weather in Nürtingen — Graph

°F

Nürtingen temperature yesterday

Maximum temperature yesterday: 70 °F (at 3:50 PM)
Minimum temperature yesterday: 34 °F (at 6:20 AM)
Average temperature yesterday: 53 °F

Past Weeks' High & Low Weather Summary

 TemperatureHumidityPressure
High77 °F (Apr 15, 3:20 PM)93% (Apr 13, 3:50 AM)30.42 "Hg (Apr 13, 3:50 AM)
Low32 °F (Apr 23, 6:20 AM)15% (Apr 15, 5:50 PM)29.86 "Hg (Apr 17, 7:50 AM)
Average54 °F55%30.17 "Hg
* Reported Apr 10 12:20 PM — Apr 25 12:20 PM, Nürtingen, Weather by CustomWeather, © 2015

Note: Actual official high and low records may vary slightly from our data, if they occured in-between our weather recording intervals... More about our weather records

Advertising

Nürtingen weather history for previous 24 hours

 ConditionsComfort  
Time TempWeatherWind HumidityBarometerVisibility
12:20 PM
Sat, Apr 25
57 °FLight rain. Broken clouds.3 mph72%29.86 "HgN/A
11:50 AM54 °FPartly sunny.6 mph77%29.89 "HgN/A
11:20 AM54 °FLight rain. Broken clouds.5 mph77%29.89 "HgN/A
10:50 AM54 °FLight rain. Partly sunny.3 mph77%29.89 "HgN/A
10:20 AM54 °FLight rain. Clear.2 mph72%29.89 "HgN/A
9:50 AM54 °FLight rain. Clear.3 mph63%29.89 "HgN/A
9:20 AM52 °FSunny.2 mph77%29.89 "Hg10 mi
8:50 AM52 °FLight rain. Clear.1 mph62%29.89 "HgN/A
8:20 AM48 °FSunny.No wind71%29.89 "Hg10 mi
7:50 AM46 °FPassing clouds.3 mph76%29.89 "HgN/A
7:20 AM43 °FPassing clouds.3 mph87%29.89 "HgN/A
6:50 AM43 °FClear.No wind87%29.86 "Hg10 mi
6:20 AM41 °FClear.1 mph87%29.86 "Hg10 mi
5:20 AM41 °FClear.1 mph87%29.86 "Hg10 mi
4:50 AM43 °FClear.2 mph81%29.86 "Hg10 mi
4:20 AM43 °FClear.No wind81%29.86 "Hg10 mi
3:50 AM43 °FClear.1 mph76%29.89 "Hg10 mi
3:20 AM45 °FClear.No wind76%29.89 "Hg10 mi
2:50 AM45 °FClear.1 mph71%29.89 "Hg10 mi
2:20 AM46 °FClear.1 mph66%29.89 "Hg10 mi
1:50 AM46 °FClear.2 mph71%29.89 "Hg10 mi
1:20 AM48 °FClear.2 mph66%29.92 "Hg10 mi
12:50 AM48 °FClear.2 mph66%29.92 "Hg10 mi
12:20 AM48 °FPassing clouds.3 mph66%29.92 "HgN/A
11:50 PM
Fri, Apr 24
50 °FClear.3 mph62%29.92 "Hg10 mi
11:20 PM50 °FClear.8 mph67%29.92 "Hg10 mi
10:50 PM54 °FClear.No wind54%29.92 "Hg10 mi
10:20 PM55 °FPassing clouds.3 mph51%29.92 "HgN/A
9:50 PM57 °FClear.1 mph51%29.92 "Hg10 mi
9:20 PM61 °FSunny.3 mph42%29.92 "Hg10 mi
8:50 PM61 °FPassing clouds.3 mph39%29.92 "HgN/A
8:20 PM63 °FSunny.3 mph37%29.92 "Hg10 mi
7:50 PM64 °FSunny.6 mph37%29.92 "Hg10 mi
7:20 PM64 °FPassing clouds.6 mph37%29.92 "HgN/A
6:50 PM66 °FPassing clouds.6 mph32%29.92 "HgN/A
6:20 PM66 °FPassing clouds.7 mph30%29.92 "HgN/A
5:50 PM68 °FPassing clouds.6 mph28%29.92 "HgN/A
5:20 PM68 °FPassing clouds.6 mph26%29.92 "HgN/A
4:50 PM68 °FSunny.6 mph26%29.92 "Hg10 mi
4:20 PM68 °FSunny.5 mph26%29.92 "Hg10 mi
3:50 PM70 °FPassing clouds.5 mph27%29.95 "HgN/A
3:20 PM68 °FSunny.5 mph24%29.95 "Hg10 mi
2:50 PM68 °FSunny.5 mph23%29.95 "Hg10 mi
2:20 PM66 °FSunny.6 mph28%29.95 "Hg10 mi
1:50 PM64 °FSunny.3 mph24%29.98 "Hg10 mi
1:20 PM64 °FSunny.6 mph28%29.98 "Hg10 mi
Weather by CustomWeather, © 2015

See weather overviewHow to use our weather pages